Time,TemperatureF,DewpointF,PressureIn,WindDirection,WindDirectionDegrees,WindSpeedMPH,WindSpeedGustMPH,Humidity,HourlyPrecipIn,Conditions,Clouds,dailyrainin,SoftwareType,DateUTC
2013-02-06 00:00:00,29.6,27.6,29.89,SW,214,0.0,5.0,92,0.00,,,0.02,VWS V13.01,2013-02-06 05:00:00,
2013-02-06 00:05:00,29.4,27.4,29.89,SW,214,0.0,1.0,92,0.00,,,0.00,VWS V13.01,2013-02-06 05:05:00,
2013-02-06 00:10:00,29.3,27.3,29.89,SW,218,1.0,1.0,92,0.00,,,0.00,VWS V13.01,2013-02-06 05:10:00,
2013-02-06 00:15:00,29.2,27.2,29.89,SW,218,0.0,2.0,92,0.00,,,0.00,VWS V13.01,2013-02-06 05:15:00,
2013-02-06 00:20:00,29.1,27.1,29.89,WSW,243,0.0,4.0,92,0.00,,,0.00,VWS V13.01,2013-02-06 05:20:00,
2013-02-06 00:25:00,28.9,26.9,29.89,WSW,243,0.0,4.0,92,0.00,,,0.00,VWS V13.01,2013-02-06 05:25:00,
2013-02-06 00:30:00,28.7,26.9,29.89,WSW,239,1.0,2.0,93,0.00,,,0.00,VWS V13.01,2013-02-06 05:30:00,
2013-02-06 00:35:00,28.7,26.9,29.89,WSW,238,0.0,2.0,93,0.00,,,0.00,VWS V13.01,2013-02-06 05:35:00,
2013-02-06 00:40:00,28.5,26.7,29.89,WSW,238,0.0,3.0,93,0.00,,,0.00,VWS V13.01,2013-02-06 05:40:00,
2013-02-06 00:45:00,28.4,26.6,29.89,WSW,238,0.0,3.0,93,0.00,,,0.00,VWS V13.01,2013-02-06 05:45:00,
2013-02-06 00:50:00,28.2,26.2,29.89,WSW,238,0.0,3.0,92,0.00,,,0.00,VWS V13.01,2013-02-06 05:50:00,
2013-02-06 00:55:00,28.0,26.0,29.89,WSW,238,0.0,3.0,92,0.00,,,0.00,VWS V13.01,2013-02-06 05:55:00,
2013-02-06 01:00:00,27.7,25.7,29.89,WSW,238,0.0,0.0,92,0.00,,,0.00,VWS V13.01,2013-02-06 06:00:00,
2013-02-06 01:05:00,27.4,25.4,29.89,WSW,238,0.0,0.0,92,0.00,,,0.00,VWS V13.01,2013-02-06 06:05:00,
2013-02-06 01:10:00,27.2,25.2,29.89,WSW,238,0.0,0.0,92,0.00,,,0.00,VWS V13.01,2013-02-06 06:10:00,
2013-02-06 01:15:00,27.0,25.0,29.89,WSW,238,0.0,0.0,92,0.00,,,0.00,VWS V13.01,2013-02-06 06:15:00,
2013-02-06 01:20:00,26.8,24.8,29.89,WSW,238,0.0,0.0,92,0.00,,,0.00,VWS V13.01,2013-02-06 06:20:00,
2013-02-06 01:25:00,26.6,24.6,29.89,WSW,238,0.0,0.0,92,0.00,,,0.00,VWS V13.01,2013-02-06 06:25:00,
2013-02-06 01:30:00,26.4,24.4,29.89,WSW,238,0.0,0.0,92,0.00,,,0.00,VWS V13.01,2013-02-06 06:30:00,
2013-02-06 01:35:00,26.2,24.2,29.89,WSW,238,0.0,0.0,92,0.00,,,0.00,VWS V13.01,2013-02-06 06:35:00,
2013-02-06 01:40:00,26.0,23.7,29.89,WSW,238,0.0,0.0,91,0.00,,,0.00,VWS V13.01,2013-02-06 06:40:00,
2013-02-06 01:45:00,25.8,23.5,29.89,WSW,238,0.0,0.0,91,0.00,,,0.00,VWS V13.01,2013-02-06 06:45:00,
2013-02-06 01:50:00,25.6,23.3,29.89,WSW,238,0.0,0.0,91,0.00,,,0.00,VWS V13.01,2013-02-06 06:50:00,
2013-02-06 01:55:00,25.3,23.3,29.89,WSW,238,0.0,0.0,92,0.00,,,0.00,VWS V13.01,2013-02-06 06:55:00,
2013-02-06 02:00:00,25.1,23.1,29.89,WSW,238,0.0,0.0,92,0.00,,,0.00,VWS V13.01,2013-02-06 07:00:00,
2013-02-06 02:05:00,24.9,22.6,29.90,WSW,238,0.0,0.0,91,0.00,,,0.00,VWS V13.01,2013-02-06 07:05:00,
2013-02-06 02:10:00,24.6,22.4,29.90,WSW,238,0.0,0.0,91,0.00,,,0.00,VWS V13.01,2013-02-06 07:10:00,
2013-02-06 02:15:00,24.3,22.1,29.90,WSW,238,0.0,1.0,91,0.00,,,0.00,VWS V13.01,2013-02-06 07:15:00,
2013-02-06 02:20:00,24.1,21.9,29.90,WSW,238,0.0,1.0,91,0.00,,,0.00,VWS V13.01,2013-02-06 07:20:00,
2013-02-06 02:25:00,23.9,21.7,29.90,WSW,238,0.0,1.0,91,0.00,,,0.00,VWS V13.01,2013-02-06 07:25:00,
2013-02-06 02:30:00,23.7,21.5,29.90,WSW,238,0.0,0.0,91,0.00,,,0.00,VWS V13.01,2013-02-06 07:30:00,
2013-02-06 02:35:00,23.7,22.0,29.91,WSW,238,0.0,1.0,93,0.00,,,0.00,VWS V13.01,2013-02-06 07:35:00,
2013-02-06 02:40:00,23.9,22.2,29.91,WSW,238,0.0,2.0,93,0.00,,,0.00,VWS V13.01,2013-02-06 07:40:00,
2013-02-06 02:45:00,24.0,22.3,29.91,WSW,238,0.0,2.0,93,0.00,,,0.00,VWS V13.01,2013-02-06 07:45:00,
2013-02-06 02:50:00,24.2,22.5,29.91,WSW,238,0.0,2.0,93,0.00,,,0.00,VWS V13.01,2013-02-06 07:50:00,
2013-02-06 02:55:00,24.2,22.5,29.91,WSW,238,0.0,2.0,93,0.00,,,0.00,VWS V13.01,2013-02-06 07:55:00,
2013-02-06 03:00:00,24.2,22.5,29.91,WSW,238,0.0,0.0,93,0.00,,,0.00,VWS V13.01,2013-02-06 08:00:00,
2013-02-06 03:05:00,24.3,22.8,29.91,WSW,238,0.0,0.0,94,0.00,,,0.00,VWS V13.01,2013-02-06 08:05:00,
2013-02-06 03:10:00,24.4,22.7,29.91,WSW,238,0.0,0.0,93,0.00,,,0.00,VWS V13.01,2013-02-06 08:10:00,
2013-02-06 03:15:00,24.4,22.9,29.91,WSW,238,0.0,0.0,94,0.00,,,0.00,VWS V13.01,2013-02-06 08:15:00,
2013-02-06 03:20:00,24.5,23.0,29.91,WSW,238,0.0,0.0,94,0.00,,,0.00,VWS V13.01,2013-02-06 08:20:00,
2013-02-06 03:25:00,24.7,23.2,29.92,WSW,238,0.0,0.0,94,0.00,,,0.00,VWS V13.01,2013-02-06 08:25:00,
2013-02-06 03:30:00,24.8,23.3,29.91,WSW,238,0.0,0.0,94,0.00,,,0.00,VWS V13.01,2013-02-06 08:30:00,
2013-02-06 03:35:00,25.0,23.5,29.93,WSW,238,0.0,0.0,94,0.00,,,0.00,VWS V13.01,2013-02-06 08:35:00,
2013-02-06 03:40:00,25.2,23.7,29.93,WSW,238,0.0,0.0,94,0.00,,,0.00,VWS V13.01,2013-02-06 08:40:00,
2013-02-06 03:45:00,25.3,23.8,29.93,WSW,238,2.0,2.0,94,0.00,,,0.00,VWS V13.01,2013-02-06 08:45:00,
2013-02-06 03:50:00,25.4,23.9,29.94,WSW,239,0.0,2.0,94,0.00,,,0.00,VWS V13.01,2013-02-06 08:50:00,
2013-02-06 03:55:00,25.6,24.1,29.94,WSW,239,2.0,3.0,94,0.00,,,0.00,VWS V13.01,2013-02-06 08:55:00,
2013-02-06 04:00:00,25.8,24.3,29.94,WSW,239,0.0,1.0,94,0.00,,,0.00,VWS V13.01,2013-02-06 09:00:00,
2013-02-06 04:05:00,26.0,24.5,29.94,WSW,239,2.0,2.0,94,0.00,,,0.00,VWS V13.01,2013-02-06 09:05:00,
2013-02-06 04:10:00,26.1,24.4,29.94,WSW,254,1.0,2.0,93,0.00,,,0.00,VWS V13.01,2013-02-06 09:10:00,
2013-02-06 04:15:00,26.3,24.6,29.95,WSW,254,0.0,3.0,93,0.00,,,0.00,VWS V13.01,2013-02-06 09:15:00,
2013-02-06 04:20:00,26.4,24.4,29.95,WSW,254,0.0,3.0,92,0.00,,,0.00,VWS V13.01,2013-02-06 09:20:00,
2013-02-06 04:25:00,26.5,24.2,29.95,SSW,203,0.0,3.0,91,0.00,,,0.00,VWS V13.01,2013-02-06 09:25:00,
2013-02-06 04:30:00,26.6,24.3,29.95,SSW,203,0.0,0.0,91,0.00,,,0.00,VWS V13.01,2013-02-06 09:30:00,
2013-02-06 04:35:00,26.7,24.2,29.95,SSW,203,3.0,3.0,90,0.00,,,0.00,VWS V13.01,2013-02-06 09:35:00,
2013-02-06 04:40:00,26.8,24.0,29.96,SSW,203,1.0,3.0,89,0.00,,,0.00,VWS V13.01,2013-02-06 09:40:00,
2013-02-06 04:45:00,26.9,23.8,29.95,WSW,241,0.0,3.0,88,0.00,,,0.00,VWS V13.01,2013-02-06 09:45:00,
2013-02-06 04:50:00,27.0,23.6,29.96,WSW,246,0.0,3.0,87,0.00,,,0.00,VWS V13.01,2013-02-06 09:50:00,
2013-02-06 04:55:00,27.1,23.5,29.97,WSW,246,0.0,3.0,86,0.00,,,0.00,VWS V13.01,2013-02-06 09:55:00,
2013-02-06 05:00:00,27.1,23.2,29.97,WSW,246,0.0,1.0,85,0.00,,,0.00,VWS V13.01,2013-02-06 10:00:00,
2013-02-06 05:05:00,27.2,23.0,29.97,WSW,246,0.0,3.0,84,0.00,,,0.00,VWS V13.01,2013-02-06 10:05:00,
2013-02-06 05:10:00,27.3,23.1,29.97,WSW,246,0.0,3.0,84,0.00,,,0.00,VWS V13.01,2013-02-06 10:10:00,
2013-02-06 05:15:00,27.3,23.1,29.97,WSW,245,0.0,3.0,84,0.00,,,0.00,VWS V13.01,2013-02-06 10:15:00,
2013-02-06 05:20:00,27.4,22.9,29.97,WSW,245,0.0,3.0,83,0.00,,,0.00,VWS V13.01,2013-02-06 10:20:00,
2013-02-06 05:25:00,27.4,22.6,29.97,WSW,245,0.0,3.0,82,0.00,,,0.00,VWS V13.01,2013-02-06 10:25:00,
2013-02-06 05:30:00,27.5,22.7,29.97,WSW,245,0.0,0.0,82,0.00,,,0.00,VWS V13.01,2013-02-06 10:30:00,
2013-02-06 05:35:00,27.4,22.6,29.97,WSW,245,0.0,1.0,82,0.00,,,0.00,VWS V13.01,2013-02-06 10:35:00,
2013-02-06 05:40:00,27.4,22.6,29.97,WSW,245,0.0,1.0,82,0.00,,,0.00,VWS V13.01,2013-02-06 10:40:00,
2013-02-06 05:45:00,27.2,22.1,29.97,WSW,245,0.0,2.0,81,0.00,,,0.00,VWS V13.01,2013-02-06 10:45:00,
2013-02-06 05:50:00,27.1,22.1,29.97,WSW,245,0.0,2.0,81,0.00,,,0.00,VWS V13.01,2013-02-06 10:50:00,
2013-02-06 05:55:00,26.9,21.9,29.97,WSW,245,0.0,2.0,81,0.00,,,0.00,VWS V13.01,2013-02-06 10:55:00,
2013-02-06 06:00:00,26.7,21.7,29.98,WSW,245,0.0,0.0,81,0.00,,,0.00,VWS V13.01,2013-02-06 11:00:00,
2013-02-06 06:05:00,26.4,21.4,29.98,WSW,245,0.0,0.0,81,0.00,,,0.00,VWS V13.01,2013-02-06 11:05:00,
2013-02-06 06:10:00,26.1,21.4,29.99,WSW,245,0.0,0.0,82,0.00,,,0.00,VWS V13.01,2013-02-06 11:10:00,
2013-02-06 06:15:00,25.8,21.1,30.00,WSW,245,0.0,0.0,82,0.00,,,0.00,VWS V13.01,2013-02-06 11:15:00,
2013-02-06 06:20:00,25.6,21.2,30.01,WSW,245,0.0,0.0,83,0.00,,,0.00,VWS V13.01,2013-02-06 11:20:00,
2013-02-06 06:25:00,25.4,21.0,30.01,WSW,245,0.0,0.0,83,0.00,,,0.00,VWS V13.01,2013-02-06 11:25:00,
2013-02-06 06:30:00,25.4,21.0,30.01,WSW,245,0.0,0.0,83,0.00,,,0.00,VWS V13.01,2013-02-06 11:30:00,
2013-02-06 06:35:00,25.3,20.9,30.01,WSW,245,0.0,0.0,83,0.00,,,0.00,VWS V13.01,2013-02-06 11:35:00,
2013-02-06 06:40:00,25.3,20.9,30.02,WSW,245,0.0,0.0,83,0.00,,,0.00,VWS V13.01,2013-02-06 11:40:00,
2013-02-06 06:45:00,25.5,21.4,30.02,WSW,245,0.0,1.0,84,0.00,,,0.00,VWS V13.01,2013-02-06 11:45:00,
2013-02-06 06:50:00,25.8,21.6,30.02,WSW,245,0.0,2.0,84,0.00,,,0.00,VWS V13.01,2013-02-06 11:50:00,
2013-02-06 06:55:00,26.0,21.6,30.03,WSW,245,1.0,2.0,83,0.00,,,0.00,VWS V13.01,2013-02-06 11:55:00,
2013-02-06 07:00:00,26.2,21.8,30.02,WSW,245,0.0,0.0,83,0.00,,,0.00,VWS V13.01,2013-02-06 12:00:00,
2013-02-06 07:05:00,26.4,21.7,30.03,WSW,245,1.0,2.0,82,0.00,,,0.00,VWS V13.01,2013-02-06 12:05:00,
2013-02-06 07:10:00,26.5,21.8,30.03,WSW,245,0.0,2.0,82,0.00,,,0.00,VWS V13.01,2013-02-06 12:10:00,
2013-02-06 07:15:00,26.7,22.0,30.03,WSW,245,0.0,2.0,82,0.00,,,0.00,VWS V13.01,2013-02-06 12:15:00,
2013-02-06 07:20:00,26.8,22.0,30.03,WSW,245,0.0,2.0,82,0.00,,,0.00,VWS V13.01,2013-02-06 12:20:00,
2013-02-06 07:25:00,26.8,22.0,30.03,WSW,245,0.0,2.0,82,0.00,,,0.00,VWS V13.01,2013-02-06 12:25:00,
2013-02-06 07:30:00,26.9,22.1,30.04,WSW,245,0.0,0.0,82,0.00,,,0.00,VWS V13.01,2013-02-06 12:30:00,
2013-02-06 07:35:00,27.0,22.2,30.04,WSW,245,0.0,1.0,82,0.00,,OVC045,0.00,VWS V13.01,2013-02-06 12:35:00,
2013-02-06 07:40:00,27.0,22.2,30.04,WSW,245,0.0,1.0,82,0.00,,OVC045,0.00,VWS V13.01,2013-02-06 12:40:00,
2013-02-06 07:45:00,27.1,22.6,30.04,WSW,245,0.0,1.0,83,0.00,,OVC045,0.00,VWS V13.01,2013-02-06 12:45:00,
2013-02-06 07:50:00,27.1,22.4,30.04,WSW,245,0.0,1.0,82,0.00,,OVC045,0.00,VWS V13.01,2013-02-06 12:50:00,
2013-02-06 07:55:00,27.2,22.7,30.05,WSW,245,0.0,1.0,83,0.00,,OVC045,0.00,VWS V13.01,2013-02-06 12:55:00,
2013-02-06 08:00:00,27.3,22.8,30.05,WSW,245,0.0,0.0,83,0.00,,OVC045,0.00,VWS V13.01,2013-02-06 13:00:00,
2013-02-06 08:05:00,27.3,22.8,30.05,WSW,245,0.0,1.0,83,0.00,,OVC045,0.00,VWS V13.01,2013-02-06 13:05:00,
2013-02-06 08:10:00,27.6,23.1,30.05,WSW,245,0.0,2.0,83,0.00,,OVC045,0.00,VWS V13.01,2013-02-06 13:10:00,
2013-02-06 08:15:00,27.7,22.9,30.05,WSW,245,0.0,2.0,82,0.00,,OVC045,0.00,VWS V13.01,2013-02-06 13:15:00,
2013-02-06 08:20:00,27.9,23.1,30.05,WSW,245,0.0,2.0,82,0.00,,OVC045,0.00,VWS V13.01,2013-02-06 13:20:00,
2013-02-06 08:25:00,28.1,23.3,30.06,WSW,245,2.0,2.0,82,0.00,,OVC045,0.00,VWS V13.01,2013-02-06 13:25:00,
2013-02-06 08:30:00,28.4,23.6,30.07,SW,222,0.0,0.0,82,0.00,,OVC045,0.00,VWS V13.01,2013-02-06 13:30:00,
2013-02-06 08:35:00,28.6,23.5,30.06,SW,224,1.0,2.0,81,0.00,,OVC034,0.00,VWS V13.01,2013-02-06 13:35:00,
2013-02-06 08:40:00,28.9,23.8,30.06,SW,224,2.0,3.0,81,0.00,,OVC034,0.00,VWS V13.01,2013-02-06 13:40:00,
2013-02-06 08:45:00,29.2,24.1,30.07,SSW,210,0.0,4.0,81,0.00,,OVC034,0.00,VWS V13.01,2013-02-06 13:45:00,
2013-02-06 08:50:00,29.5,24.1,30.07,SW,214,1.0,5.0,80,0.00,,OVC034,0.00,VWS V13.01,2013-02-06 13:50:00,
2013-02-06 08:55:00,29.8,24.4,30.08,SSW,201,1.0,7.0,80,0.00,,OVC034,0.00,VWS V13.01,2013-02-06 13:55:00,
2013-02-06 09:00:00,30.0,24.3,30.07,South,174,1.0,3.0,79,0.00,,OVC034,0.00,VWS V13.01,2013-02-06 14:00:00,
2013-02-06 09:05:00,30.3,24.6,30.08,SSW,204,2.0,4.0,79,0.00,,OVC034,0.00,VWS V13.01,2013-02-06 14:05:00,
2013-02-06 09:10:00,30.5,24.8,30.07,SW,221,2.0,5.0,79,0.00,,OVC034,0.00,VWS V13.01,2013-02-06 14:10:00,
2013-02-06 09:15:00,30.7,24.7,30.08,SSW,193,2.0,5.0,78,0.00,,OVC034,0.00,VWS V13.01,2013-02-06 14:15:00,
2013-02-06 09:20:00,30.9,24.5,30.08,SSW,192,0.0,6.0,77,0.00,,OVC034,0.00,VWS V13.01,2013-02-06 14:20:00,
2013-02-06 09:25:00,31.1,25.0,30.08,SSW,208,0.0,6.0,78,0.00,,OVC034,0.00,VWS V13.01,2013-02-06 14:25:00,
2013-02-06 09:30:00,31.3,24.6,30.08,SW,236,1.0,8.0,76,0.00,,OVC034,0.00,VWS V13.01,2013-02-06 14:30:00,
2013-02-06 09:35:00,31.4,24.7,30.08,SSW,208,3.0,8.0,76,0.00,,OVC050,0.00,VWS V13.01,2013-02-06 14:35:00,
2013-02-06 09:40:00,31.6,24.9,30.08,SW,218,2.0,9.0,76,0.00,,OVC050,0.00,VWS V13.01,2013-02-06 14:40:00,
2013-02-06 09:45:00,31.8,25.1,30.08,SW,226,1.0,10.0,76,0.00,,OVC050,0.00,VWS V13.01,2013-02-06 14:45:00,
2013-02-06 09:50:00,32.0,25.0,30.08,SSW,199,3.0,10.0,75,0.00,,OVC050,0.00,VWS V13.01,2013-02-06 14:50:00,
2013-02-06 09:55:00,32.2,25.2,30.08,SSW,208,5.0,10.0,75,0.00,,OVC050,0.00,VWS V13.01,2013-02-06 14:55:00,
2013-02-06 10:00:00,32.4,25.4,30.08,WSW,246,1.0,5.0,75,0.00,,OVC050,0.00,VWS V13.01,2013-02-06 15:00:00,
2013-02-06 10:05:00,32.6,25.6,30.08,West,259,0.0,7.0,75,0.00,,OVC050,0.00,VWS V13.01,2013-02-06 15:05:00,
2013-02-06 10:10:00,33.0,25.6,30.09,SW,214,4.0,11.0,74,0.00,,OVC050,0.00,VWS V13.01,2013-02-06 15:10:00,
2013-02-06 10:15:00,33.1,26.0,30.09,SSW,205,8.0,11.0,75,0.00,,OVC050,0.00,VWS V13.01,2013-02-06 15:15:00,
2013-02-06 10:20:00,33.3,26.2,30.09,SW,233,3.0,11.0,75,0.00,,OVC050,0.00,VWS V13.01,2013-02-06 15:20:00,
2013-02-06 10:26:00,33.5,26.1,30.10,West,274,1.0,11.0,74,0.00,,OVC050,0.00,VWS V13.01,2013-02-06 15:26:00,
2013-02-06 10:31:00,33.7,26.0,30.10,SSW,196,8.0,8.0,73,0.00,,OVC050,0.00,VWS V13.01,2013-02-06 15:31:00,
2013-02-06 10:36:00,33.7,25.6,30.10,SW,215,4.0,10.0,72,0.00,,OVC055,0.00,VWS V13.01,2013-02-06 15:36:00,
2013-02-06 10:41:00,33.9,25.8,30.10,WSW,248,6.0,10.0,72,0.00,,OVC055,0.00,VWS V13.01,2013-02-06 15:41:00,
2013-02-06 10:46:00,34.0,25.9,30.11,WSW,252,1.0,10.0,72,0.00,,OVC055,0.00,VWS V13.01,2013-02-06 15:46:00,
2013-02-06 10:51:00,34.2,26.1,30.11,SW,225,2.0,10.0,72,0.00,,OVC055,0.00,VWS V13.01,2013-02-06 15:51:00,
2013-02-06 10:56:00,34.1,25.7,30.11,SW,226,3.0,10.0,71,0.00,,OVC055,0.00,VWS V13.01,2013-02-06 15:56:00,
2013-02-06 11:01:00,34.2,25.8,30.11,SW,225,4.0,8.0,71,0.00,,OVC055,0.00,VWS V13.01,2013-02-06 16:01:00,
2013-02-06 11:06:00,34.6,25.5,30.11,WSW,242,10.0,12.0,69,0.00,,OVC055,0.00,VWS V13.01,2013-02-06 16:06:00,
2013-02-06 11:11:00,34.9,25.4,30.11,SW,232,7.0,12.0,68,0.00,,OVC055,0.00,VWS V13.01,2013-02-06 16:11:00,
2013-02-06 11:15:00,35.3,25.8,30.11,SW,228,6.0,12.0,68,0.00,,OVC055,0.00,VWS V13.01,2013-02-06 16:15:00,
2013-02-06 11:21:00,35.5,25.6,30.12,SW,232,4.0,14.0,67,0.00,,OVC055,0.00,VWS V13.01,2013-02-06 16:21:00,
2013-02-06 11:26:00,35.5,25.6,30.12,West,278,1.0,14.0,67,0.00,,OVC055,0.00,VWS V13.01,2013-02-06 16:26:00,
2013-02-06 11:31:00,35.5,25.3,30.12,SW,231,7.0,7.0,66,0.00,,OVC055,0.00,VWS V13.01,2013-02-06 16:31:00,
2013-02-06 11:36:00,35.4,25.5,30.12,WSW,244,2.0,7.0,67,0.00,,OVC060,0.00,VWS V13.01,2013-02-06 16:36:00,
2013-02-06 11:41:00,35.3,25.5,30.12,SW,221,2.0,9.0,67,0.01,,OVC060,0.01,VWS V13.01,2013-02-06 16:41:00,
2013-02-06 11:46:00,35.1,25.3,30.12,West,279,1.0,9.0,67,0.01,,OVC060,0.01,VWS V13.01,2013-02-06 16:46:00,
2013-02-06 11:51:00,34.9,25.1,30.12,WSW,254,1.0,9.0,67,0.01,,OVC060,0.01,VWS V13.01,2013-02-06 16:51:00,
2013-02-06 11:56:00,34.9,25.1,30.12,WSW,253,1.0,9.0,67,0.01,,OVC060,0.01,VWS V13.01,2013-02-06 16:56:00,
2013-02-06 12:01:00,34.8,24.6,30.12,WNW,283,5.0,6.0,66,0.01,,OVC060,0.01,VWS V13.01,2013-02-06 17:01:00,
2013-02-06 12:06:00,35.0,24.1,30.11,SW,222,3.0,8.0,64,0.01,,OVC060,0.01,VWS V13.01,2013-02-06 17:06:00,
2013-02-06 12:11:00,35.7,25.1,30.11,SW,232,3.0,8.0,65,0.01,,OVC060,0.01,VWS V13.01,2013-02-06 17:11:00,
2013-02-06 12:16:00,36.3,25.3,30.11,SW,218,5.0,10.0,64,0.01,,OVC060,0.01,VWS V13.01,2013-02-06 17:16:00,
2013-02-06 12:21:00,36.4,24.6,30.11,WSW,248,3.0,10.0,62,0.01,,OVC060,0.01,VWS V13.01,2013-02-06 17:21:00,
2013-02-06 12:26:00,36.2,24.5,30.12,SW,219,5.0,10.0,62,0.01,,OVC060,0.01,VWS V13.01,2013-02-06 17:26:00,
2013-02-06 12:31:00,36.0,24.3,30.12,West,280,4.0,10.0,62,0.01,,OVC060,0.01,VWS V13.01,2013-02-06 17:31:00,
2013-02-06 12:36:00,35.8,24.8,30.11,WSW,253,2.0,10.0,64,0.01,,OVC050,0.01,VWS V13.01,2013-02-06 17:36:00,
2013-02-06 12:41:00,35.8,24.8,30.12,West,271,1.0,10.0,64,0.01,,OVC050,0.01,VWS V13.01,2013-02-06 17:41:00,
2013-02-06 12:46:00,35.8,25.6,30.12,WSW,247,0.0,10.0,66,0.01,,OVC050,0.01,VWS V13.01,2013-02-06 17:46:00,
2013-02-06 12:51:00,35.8,25.6,30.12,West,261,2.0,10.0,66,0.01,,OVC050,0.01,VWS V13.01,2013-02-06 17:51:00,
2013-02-06 12:56:00,36.0,25.8,30.12,SW,234,4.0,10.0,66,0.01,,OVC050,0.01,VWS V13.01,2013-02-06 17:56:00,
2013-02-06 13:01:00,36.5,25.9,30.12,SSW,206,7.0,8.0,65,0.00,,OVC050,0.01,VWS V13.01,2013-02-06 18:01:00,
2013-02-06 13:06:00,36.9,25.9,30.13,SW,232,5.0,10.0,64,0.00,,OVC050,0.01,VWS V13.01,2013-02-06 18:06:00,
2013-02-06 13:11:00,37.3,26.3,30.12,West,265,2.0,12.0,64,0.00,,OVC050,0.01,VWS V13.01,2013-02-06 18:11:00,
2013-02-06 13:16:00,37.3,25.5,30.13,SSW,201,0.0,12.0,62,0.00,,OVC050,0.01,VWS V13.01,2013-02-06 18:16:00,
2013-02-06 13:21:00,37.0,25.2,30.13,SSW,210,4.0,12.0,62,0.00,,OVC050,0.01,VWS V13.01,2013-02-06 18:21:00,
2013-02-06 13:26:00,36.7,24.9,30.13,SW,219,3.0,12.0,62,0.00,,OVC050,0.01,VWS V13.01,2013-02-06 18:26:00,
2013-02-06 13:31:00,36.6,24.8,30.13,SW,217,3.0,7.0,62,0.01,,OVC050,0.02,VWS V13.01,2013-02-06 18:31:00,
2013-02-06 13:36:00,36.6,24.4,30.13,WNW,302,1.0,11.0,61,0.01,,OVC050,0.02,VWS V13.01,2013-02-06 18:36:00,
2013-02-06 13:41:00,36.9,23.9,30.13,SW,220,4.0,11.0,59,0.01,,OVC050,0.02,VWS V13.01,2013-02-06 18:41:00,
2013-02-06 13:46:00,37.5,25.7,30.13,WNW,301,2.0,11.0,62,0.01,,OVC050,0.02,VWS V13.01,2013-02-06 18:46:00,
2013-02-06 13:51:00,37.7,25.9,30.13,NW,313,6.0,11.0,62,0.01,,OVC050,0.02,VWS V13.01,2013-02-06 18:51:00,
2013-02-06 13:56:00,37.5,25.3,30.12,WSW,247,1.0,11.0,61,0.01,,OVC050,0.02,VWS V13.01,2013-02-06 18:56:00,
2013-02-06 14:01:00,37.5,24.9,30.13,NW,314,4.0,9.0,60,0.01,,OVC050,0.02,VWS V13.01,2013-02-06 19:01:00,
2013-02-06 14:06:00,37.6,23.8,30.13,West,268,2.0,9.0,57,0.01,,OVC050,0.02,VWS V13.01,2013-02-06 19:06:00,
2013-02-06 14:11:00,37.6,22.9,30.14,SW,235,4.0,12.0,55,0.01,,OVC050,0.02,VWS V13.01,2013-02-06 19:11:00,
2013-02-06 14:16:00,37.6,22.9,30.14,West,269,3.0,12.0,55,0.01,,OVC050,0.02,VWS V13.01,2013-02-06 19:16:00,
2013-02-06 14:21:00,37.4,24.0,30.14,NW,313,7.0,12.0,58,0.01,,OVC050,0.02,VWS V13.01,2013-02-06 19:21:00,
2013-02-06 14:26:00,36.9,23.5,30.14,WNW,301,4.0,12.0,58,0.01,,OVC050,0.02,VWS V13.01,2013-02-06 19:26:00,
2013-02-06 14:31:00,36.4,23.5,30.14,NW,318,2.0,3.0,59,0.00,,OVC050,0.02,VWS V13.01,2013-02-06 19:31:00,
2013-02-06 14:36:00,36.1,23.2,30.15,WSW,239,2.0,6.0,59,0.00,,SCT050,0.02,VWS V13.01,2013-02-06 19:36:00,
2013-02-06 14:41:00,35.9,22.2,30.15,NW,320,0.0,8.0,57,0.00,,SCT050,0.02,VWS V13.01,2013-02-06 19:41:00,
2013-02-06 14:46:00,35.8,22.1,30.15,WSW,257,0.0,8.0,57,0.00,,SCT050,0.02,VWS V13.01,2013-02-06 19:46:00,
2013-02-06 14:51:00,35.8,22.5,30.15,WSW,258,3.0,8.0,58,0.00,,SCT050,0.02,VWS V13.01,2013-02-06 19:51:00,
2013-02-06 14:56:00,35.8,21.6,30.15,SW,228,1.0,8.0,56,0.00,,SCT050,0.02,VWS V13.01,2013-02-06 19:56:00,
2013-02-06 15:01:00,35.7,21.6,30.15,SW,221,1.0,5.0,56,0.00,,SCT050,0.02,VWS V13.01,2013-02-06 20:01:00,
2013-02-06 15:06:00,36.1,22.4,30.15,SSW,203,3.0,6.0,57,0.00,,SCT050,0.02,VWS V13.01,2013-02-06 20:06:00,
2013-02-06 15:11:00,36.6,20.6,30.15,WNW,301,3.0,11.0,52,0.00,,SCT050,0.02,VWS V13.01,2013-02-06 20:11:00,
2013-02-06 15:16:00,37.2,19.3,30.15,SW,233,2.0,14.0,48,0.00,,SCT050,0.02,VWS V13.01,2013-02-06 20:16:00,
2013-02-06 15:21:00,37.6,19.7,30.16,WSW,249,6.0,14.0,48,0.00,,SCT050,0.02,VWS V13.01,2013-02-06 20:21:00,
2013-02-06 15:26:00,37.8,20.8,30.16,NW,304,10.0,14.0,50,0.00,,SCT050,0.02,VWS V13.01,2013-02-06 20:26:00,
2013-02-06 15:31:00,37.5,20.1,30.16,WNW,293,4.0,7.0,49,0.00,,SCT050,0.02,VWS V13.01,2013-02-06 20:31:00,
2013-02-06 15:36:00,37.1,19.7,30.16,SW,215,4.0,7.0,49,0.00,,FEW050,0.02,VWS V13.01,2013-02-06 20:36:00,
2013-02-06 15:41:00,36.8,19.9,30.16,WSW,258,0.0,7.0,50,0.00,,FEW050,0.02,VWS V13.01,2013-02-06 20:41:00,
2013-02-06 15:46:00,36.5,19.6,30.16,WSW,247,0.0,7.0,50,0.00,,FEW050,0.02,VWS V13.01,2013-02-06 20:46:00,
2013-02-06 15:51:00,36.2,18.9,30.17,WSW,237,2.0,7.0,49,0.00,,FEW050,0.02,VWS V13.01,2013-02-06 20:51:00,
2013-02-06 15:56:00,36.4,19.1,30.17,WSW,240,0.0,7.0,49,0.00,,FEW050,0.02,VWS V13.01,2013-02-06 20:56:00,
2013-02-06 16:01:00,36.6,18.8,30.17,SW,235,1.0,7.0,48,0.00,,FEW050,0.02,VWS V13.01,2013-02-06 21:01:00,
2013-02-06 16:06:00,36.6,18.8,30.17,SSW,209,3.0,7.0,48,0.00,,FEW050,0.02,VWS V13.01,2013-02-06 21:06:00,
2013-02-06 16:11:00,36.3,18.5,30.17,SW,215,1.0,7.0,48,0.00,,FEW050,0.02,VWS V13.01,2013-02-06 21:11:00,
2013-02-06 16:16:00,36.2,18.4,30.17,SW,219,0.0,7.0,48,0.00,,FEW050,0.02,VWS V13.01,2013-02-06 21:16:00,
2013-02-06 16:21:00,36.3,19.0,30.18,WSW,242,2.0,7.0,49,0.00,,FEW050,0.02,VWS V13.01,2013-02-06 21:21:00,
2013-02-06 16:26:00,36.5,17.7,30.18,West,278,2.0,7.0,46,0.00,,FEW050,0.02,VWS V13.01,2013-02-06 21:26:00,
2013-02-06 16:31:00,36.7,18.4,30.18,West,269,2.0,3.0,47,0.00,,FEW050,0.02,VWS V13.01,2013-02-06 21:31:00,
2013-02-06 16:36:00,36.9,18.6,30.18,West,271,0.0,5.0,47,0.00,,FEW055,0.02,VWS V13.01,2013-02-06 21:36:00,
2013-02-06 16:41:00,37.2,18.3,30.18,SW,232,0.0,5.0,46,0.00,,FEW055,0.02,VWS V13.01,2013-02-06 21:41:00,
2013-02-06 16:46:00,37.6,18.2,30.18,WSW,252,0.0,6.0,45,0.00,,FEW055,0.02,VWS V13.01,2013-02-06 21:46:00,
2013-02-06 16:51:00,37.6,18.7,30.19,SW,218,3.0,6.0,46,0.00,,FEW055,0.02,VWS V13.01,2013-02-06 21:51:00,
2013-02-06 16:56:00,37.7,18.3,30.19,SW,230,2.0,7.0,45,0.00,,FEW055,0.02,VWS V13.01,2013-02-06 21:56:00,
2013-02-06 17:01:00,37.5,18.1,30.19,WNW,303,0.0,3.0,45,0.00,,FEW055,0.02,VWS V13.01,2013-02-06 22:01:00,
2013-02-06 17:06:00,37.5,18.6,30.20,WNW,290,0.0,3.0,46,0.00,,FEW055,0.02,VWS V13.01,2013-02-06 22:06:00,
2013-02-06 17:11:00,37.3,17.9,30.20,WSW,239,0.0,4.0,45,0.00,,FEW055,0.02,VWS V13.01,2013-02-06 22:11:00,
2013-02-06 17:16:00,36.9,18.1,30.20,WSW,250,0.0,4.0,46,0.00,,FEW055,0.02,VWS V13.01,2013-02-06 22:16:00,
2013-02-06 17:21:00,36.5,18.2,30.21,WNW,297,3.0,5.0,47,0.00,,FEW055,0.02,VWS V13.01,2013-02-06 22:21:00,
2013-02-06 17:26:00,35.9,17.6,30.21,SW,227,0.0,5.0,47,0.00,,FEW055,0.02,VWS V13.01,2013-02-06 22:26:00,
2013-02-06 17:31:00,35.3,17.6,30.22,WSW,247,0.0,1.0,48,0.00,,FEW055,0.02,VWS V13.01,2013-02-06 22:31:00,
2013-02-06 17:36:00,34.8,17.6,30.21,West,270,0.0,2.0,49,0.00,,CLR,0.02,VWS V13.01,2013-02-06 22:36:00,
2013-02-06 17:41:00,34.3,17.6,30.22,West,269,0.0,2.0,50,0.00,,CLR,0.02,VWS V13.01,2013-02-06 22:41:00,
2013-02-06 17:46:00,33.7,18.8,30.22,WSW,237,0.0,2.0,54,0.00,,CLR,0.02,VWS V13.01,2013-02-06 22:46:00,
2013-02-06 17:51:00,33.0,18.6,30.22,WSW,238,0.0,2.0,55,0.00,,CLR,0.02,VWS V13.01,2013-02-06 22:51:00,
2013-02-06 17:56:00,32.2,18.7,30.22,West,270,1.0,2.0,57,0.00,,CLR,0.02,VWS V13.01,2013-02-06 22:56:00,
2013-02-06 18:01:00,31.6,18.1,30.22,West,271,0.0,0.0,57,0.00,,CLR,0.02,VWS V13.01,2013-02-06 23:01:00,
2013-02-06 18:06:00,31.0,18.4,30.23,West,272,0.0,0.0,59,0.00,,CLR,0.02,VWS V13.01,2013-02-06 23:06:00,
2013-02-06 18:11:00,30.7,18.5,30.23,West,272,0.0,1.0,60,0.00,,CLR,0.02,VWS V13.01,2013-02-06 23:11:00,
2013-02-06 18:16:00,30.3,18.1,30.23,West,272,0.0,2.0,60,0.00,,CLR,0.02,VWS V13.01,2013-02-06 23:16:00,
2013-02-06 18:21:00,30.1,17.5,30.24,West,272,0.0,2.0,59,0.00,,CLR,0.02,VWS V13.01,2013-02-06 23:21:00,
2013-02-06 18:26:00,29.9,17.7,30.25,West,272,0.0,2.0,60,0.00,,CLR,0.02,VWS V13.01,2013-02-06 23:26:00,
2013-02-06 18:31:00,29.5,17.7,30.24,West,272,0.0,0.0,61,0.00,,CLR,0.02,VWS V13.01,2013-02-06 23:31:00,
2013-02-06 18:36:00,29.2,17.4,30.25,West,272,0.0,0.0,61,0.00,,CLR,0.02,VWS V13.01,2013-02-06 23:36:00,
2013-02-06 18:41:00,28.9,17.9,30.25,West,272,0.0,0.0,63,0.00,,CLR,0.02,VWS V13.01,2013-02-06 23:41:00,
2013-02-06 18:46:00,28.6,18.0,30.25,West,272,0.0,0.0,64,0.00,,CLR,0.02,VWS V13.01,2013-02-06 23:46:00,
2013-02-06 18:51:00,28.3,17.7,30.25,West,272,0.0,0.0,64,0.00,,CLR,0.02,VWS V13.01,2013-02-06 23:51:00,
2013-02-06 18:56:00,28.1,18.2,30.25,West,272,0.0,0.0,66,0.00,,CLR,0.02,VWS V13.01,2013-02-06 23:56:00,
2013-02-06 19:01:00,27.8,18.3,30.25,West,272,0.0,0.0,67,0.00,,CLR,0.02,VWS V13.01,2013-02-07 00:01:00,
2013-02-06 19:06:00,27.6,18.1,30.25,West,272,0.0,0.0,67,0.00,,CLR,0.02,VWS V13.01,2013-02-07 00:06:00,
2013-02-06 19:11:00,27.3,17.8,30.25,West,272,0.0,0.0,67,0.00,,CLR,0.02,VWS V13.01,2013-02-07 00:11:00,
2013-02-06 19:16:00,27.0,18.2,30.26,West,272,0.0,0.0,69,0.00,,CLR,0.02,VWS V13.01,2013-02-07 00:16:00,
2013-02-06 19:21:00,26.8,18.0,30.26,West,272,0.0,0.0,69,0.00,,CLR,0.02,VWS V13.01,2013-02-07 00:21:00,
2013-02-06 19:26:00,26.5,18.0,30.26,West,272,0.0,0.0,70,0.00,,CLR,0.02,VWS V13.01,2013-02-07 00:26:00,
2013-02-06 19:31:00,26.2,17.8,30.27,West,272,0.0,0.0,70,0.00,,CLR,0.02,VWS V13.01,2013-02-07 00:31:00,
2013-02-06 19:36:00,25.9,17.8,30.27,West,272,0.0,0.0,71,0.00,,CLR,0.02,VWS V13.01,2013-02-07 00:36:00,
2013-02-06 19:41:00,25.6,17.5,30.27,West,272,0.0,0.0,71,0.00,,CLR,0.02,VWS V13.01,2013-02-07 00:41:00,
2013-02-06 19:46:00,25.3,17.2,30.27,West,272,0.0,0.0,71,0.00,,CLR,0.02,VWS V13.01,2013-02-07 00:46:00,
2013-02-06 19:51:00,25.1,17.4,30.27,West,272,0.0,0.0,72,0.00,,CLR,0.02,VWS V13.01,2013-02-07 00:51:00,
2013-02-06 19:56:00,24.8,17.4,30.27,West,272,0.0,0.0,73,0.00,,CLR,0.02,VWS V13.01,2013-02-07 00:56:00,
2013-02-06 20:01:00,24.6,16.9,30.27,West,272,0.0,0.0,72,0.00,,CLR,0.02,VWS V13.01,2013-02-07 01:01:00,
2013-02-06 20:06:00,24.5,17.1,30.27,West,272,0.0,0.0,73,0.00,,CLR,0.02,VWS V13.01,2013-02-07 01:06:00,
2013-02-06 20:11:00,24.3,16.9,30.27,West,272,0.0,0.0,73,0.00,,CLR,0.02,VWS V13.01,2013-02-07 01:11:00,
2013-02-06 20:16:00,24.0,16.6,30.28,West,272,0.0,0.0,73,0.00,,CLR,0.02,VWS V13.01,2013-02-07 01:16:00,
2013-02-06 20:21:00,23.8,16.4,30.27,West,272,0.0,0.0,73,0.00,,CLR,0.02,VWS V13.01,2013-02-07 01:21:00,
2013-02-06 20:26:00,23.6,16.2,30.28,West,272,0.0,1.0,73,0.00,,CLR,0.02,VWS V13.01,2013-02-07 01:26:00,
2013-02-06 20:31:00,23.5,16.5,30.28,West,272,0.0,0.0,74,0.00,,CLR,0.02,VWS V13.01,2013-02-07 01:31:00,
2013-02-06 20:36:00,23.4,16.4,30.28,West,272,0.0,0.0,74,0.00,,CLR,0.02,VWS V13.01,2013-02-07 01:36:00,
2013-02-06 20:41:00,23.2,16.5,30.28,West,272,0.0,0.0,75,0.00,,CLR,0.02,VWS V13.01,2013-02-07 01:41:00,
2013-02-06 20:46:00,23.0,16.0,30.27,West,272,0.0,0.0,74,0.00,,CLR,0.02,VWS V13.01,2013-02-07 01:46:00,
2013-02-06 20:51:00,22.9,16.2,30.28,West,272,0.0,0.0,75,0.00,,CLR,0.02,VWS V13.01,2013-02-07 01:51:00,
2013-02-06 20:56:00,22.8,16.1,30.28,West,272,0.0,0.0,75,0.00,,CLR,0.02,VWS V13.01,2013-02-07 01:56:00,
2013-02-06 21:01:00,22.7,16.3,30.29,West,272,0.0,0.0,76,0.00,,CLR,0.02,VWS V13.01,2013-02-07 02:01:00,
2013-02-06 21:06:00,22.6,16.2,30.29,West,272,0.0,0.0,76,0.00,,CLR,0.02,VWS V13.01,2013-02-07 02:06:00,
2013-02-06 21:11:00,22.3,15.9,30.29,West,272,0.0,0.0,76,0.00,,CLR,0.02,VWS V13.01,2013-02-07 02:11:00,
2013-02-06 21:16:00,22.2,15.8,30.30,West,272,0.0,0.0,76,0.00,,CLR,0.02,VWS V13.01,2013-02-07 02:16:00,
2013-02-06 21:21:00,22.0,15.6,30.30,West,272,0.0,0.0,76,0.00,,CLR,0.02,VWS V13.01,2013-02-07 02:21:00,
2013-02-06 21:26:00,22.0,15.6,30.30,West,272,0.0,0.0,76,0.00,,CLR,0.02,VWS V13.01,2013-02-07 02:26:00,
2013-02-06 21:31:00,21.8,15.7,30.30,West,272,0.0,0.0,77,0.00,,CLR,0.02,VWS V13.01,2013-02-07 02:31:00,
2013-02-06 21:36:00,21.7,15.6,30.31,West,272,0.0,0.0,77,0.00,,CLR,0.02,VWS V13.01,2013-02-07 02:36:00,
2013-02-06 21:41:00,21.5,15.4,30.31,West,272,0.0,0.0,77,0.00,,CLR,0.02,VWS V13.01,2013-02-07 02:41:00,
2013-02-06 21:46:00,21.4,15.6,30.32,West,272,0.0,0.0,78,0.00,,CLR,0.02,VWS V13.01,2013-02-07 02:46:00,
2013-02-06 21:51:00,21.3,15.5,30.32,West,272,0.0,0.0,78,0.00,,CLR,0.02,VWS V13.01,2013-02-07 02:51:00,
2013-02-06 21:56:00,21.3,15.5,30.31,West,272,0.0,0.0,78,0.00,,CLR,0.02,VWS V13.01,2013-02-07 02:56:00,
2013-02-06 22:01:00,21.2,15.4,30.31,West,272,0.0,0.0,78,0.00,,CLR,0.02,VWS V13.01,2013-02-07 03:01:00,
2013-02-06 22:06:00,21.1,15.3,30.31,West,272,0.0,0.0,78,0.00,,CLR,0.02,VWS V13.01,2013-02-07 03:06:00,
2013-02-06 22:11:00,21.0,15.2,30.32,West,272,0.0,0.0,78,0.00,,CLR,0.02,VWS V13.01,2013-02-07 03:11:00,
2013-02-06 22:16:00,20.8,15.0,30.32,West,272,0.0,0.0,78,0.00,,CLR,0.02,VWS V13.01,2013-02-07 03:16:00,
2013-02-06 22:21:00,20.6,15.1,30.32,West,272,0.0,0.0,79,0.00,,CLR,0.02,VWS V13.01,2013-02-07 03:21:00,
2013-02-06 22:26:00,20.6,15.1,30.32,West,272,0.0,0.0,79,0.00,,CLR,0.02,VWS V13.01,2013-02-07 03:26:00,
2013-02-06 22:31:00,20.5,15.0,30.32,West,272,0.0,0.0,79,0.00,,CLR,0.02,VWS V13.01,2013-02-07 03:31:00,
2013-02-06 22:36:00,20.4,14.9,30.31,West,272,0.0,0.0,79,0.00,,CLR,0.02,VWS V13.01,2013-02-07 03:36:00,
2013-02-06 22:41:00,20.2,15.0,30.31,West,272,0.0,0.0,80,0.00,,CLR,0.02,VWS V13.01,2013-02-07 03:41:00,
2013-02-06 22:46:00,20.1,14.9,30.31,West,272,0.0,0.0,80,0.00,,CLR,0.02,VWS V13.01,2013-02-07 03:46:00,
2013-02-06 22:51:00,20.0,14.6,30.31,West,272,0.0,0.0,79,0.00,,CLR,0.02,VWS V13.01,2013-02-07 03:51:00,
2013-02-06 22:56:00,19.9,14.7,30.31,West,272,0.0,0.0,80,0.00,,CLR,0.02,VWS V13.01,2013-02-07 03:56:00,
2013-02-06 23:01:00,19.7,14.5,30.32,West,272,0.0,0.0,80,0.00,,CLR,0.02,VWS V13.01,2013-02-07 04:01:00,
2013-02-06 23:06:00,19.5,14.4,30.32,West,272,0.0,0.0,80,0.00,,CLR,0.02,VWS V13.01,2013-02-07 04:06:00,
2013-02-06 23:11:00,19.3,14.1,30.31,West,271,0.0,0.0,80,0.00,,CLR,0.02,VWS V13.01,2013-02-07 04:11:00,
2013-02-06 23:16:00,19.1,14.2,30.31,West,271,0.0,0.0,81,0.00,,CLR,0.02,VWS V13.01,2013-02-07 04:16:00,
2013-02-06 23:21:00,19.0,14.1,30.30,West,271,0.0,0.0,81,0.00,,CLR,0.02,VWS V13.01,2013-02-07 04:21:00,
2013-02-06 23:26:00,18.8,13.9,30.31,West,271,0.0,0.0,81,0.00,,CLR,0.02,VWS V13.01,2013-02-07 04:26:00,
2013-02-06 23:31:00,18.7,13.9,30.30,West,271,0.0,0.0,81,0.00,,CLR,0.02,VWS V13.01,2013-02-07 04:31:00,
2013-02-06 23:36:00,18.7,13.9,30.31,West,271,0.0,0.0,81,0.00,,CLR,0.02,VWS V13.01,2013-02-07 04:36:00,
2013-02-06 23:41:00,18.6,14.0,30.31,West,271,0.0,0.0,82,0.00,,CLR,0.02,VWS V13.01,2013-02-07 04:41:00,
2013-02-06 23:46:00,18.4,13.8,30.31,West,271,0.0,0.0,82,0.00,,CLR,0.02,VWS V13.01,2013-02-07 04:46:00,
2013-02-06 23:51:00,18.3,13.7,30.31,West,271,0.0,0.0,82,0.00,,CLR,0.02,VWS V13.01,2013-02-07 04:51:00,
2013-02-06 23:56:00,18.1,13.5,30.31,West,270,0.0,0.0,82,0.00,,CLR,0.02,VWS V13.01,2013-02-07 04:56:00,